Lincoln, NE

12:56 AM CST on February 27, 2017 (GMT -0600)
Lincoln Municipal

Weather History for KLNK - December, 2013

Change the Weather History Date:

Friday, December 6, 2013

  Actual Average Record
Temperature  
Mean Temperature 6 °F 29 °F  
Max Temperature 14 °F 40 °F 75 °F (1939)
Min Temperature -3 °F 18 °F -8 °F (1950)
Degree Days  
Heating Degree Days 59 36  
Month to date heating degree days 232 210  
Since 1 July heating degree days 1529 1471  
Cooling Degree Days 0 0  
Month to date cooling degree days 0 0  
Year to date cooling degree days 1236 1173  
Moisture  
Dew Point -8 °F    
Average Humidity 57    
Maximum Humidity 71    
Minimum Humidity 42    
Precipitation  
Precipitation 0.00 in 0.03 in 0.95 in (1913)
Month to date precipitation T 0.21  
Year to date precipitation 26.49 28.21  
Snow  
Snow 0.00 in 0.20 in - ()
Month to date snowfall 0.0 1.1  
Since 1 July snowfall 0.2 3.9  
Snow Depth 0.00 in    
Sea Level Pressure  
Sea Level Pressure 30.66 in    
Wind  
Wind Speed 11 mph (North)    
Max Wind Speed 18 mph    
Max Gust Speed 23 mph    
Visibility 10 miles    
Events      
T = Trace of Precipitation, MM = Missing Value Source: NWS Daily Summary

Daily Weather History Graph

Daily Weather History Graph

Search for Another Location

Airport or City:

Trip Planner

Search our weather history database for the weather conditions in past years. The results will help you decide how hot, cold, wet, or windy it might be!

Date:

Astronomy

Dec. 06, 2013 Rise Set
Actual Time 7:37 AM CST 4:59 PM CST
Civil Twilight 7:06 AM CST 5:29 PM CST
Nautical Twilight 6:32 AM CST 6:04 PM CST
Astronomical Twilight 5:59 AM CST 6:37 PM CST
Moon 10:42 AM CST (12/6) 9:33 PM CST (12/6)
Length of Visible Light 10h 23m
Length of Day
9h 21m
Waxing Crescent, 19% of the Moon is Illuminated
Dec 6
Waxing Crescent
Dec 9
First Quarter
Dec 17
Full
Dec 25
Last Quarter
Jan 1
New

Hourly Weather History & Observations

Time (CST) Temp. Windchill Dew Point Humidity Pressure Visibility Wind Dir Wind Speed Gust Speed Precip Events Conditions
12:54 AM 9.0 °F -5.9 °F -7.1 °F 48% 30.53 in 10.0 mi North 11.5 mph - N/A   Scattered Clouds
1:54 AM 7.0 °F -9.1 °F -7.1 °F 53% 30.55 in 10.0 mi North 12.7 mph - N/A   Partly Cloudy
2:54 AM 6.1 °F -9.5 °F -7.1 °F 55% 30.56 in 10.0 mi North 11.5 mph - N/A   Mostly Cloudy
3:54 AM 6.1 °F -10.2 °F -7.1 °F 55% 30.57 in 10.0 mi NNW 12.7 mph - N/A   Overcast
4:54 AM 3.0 °F -16.1 °F -7.1 °F 63% 30.59 in 10.0 mi North 16.1 mph - N/A   Overcast
5:54 AM 1.0 °F -10.3 °F -8.0 °F 66% 30.61 in 10.0 mi North 5.8 mph - N/A   Overcast
6:54 AM 1.0 °F -14.9 °F -8.0 °F 66% 30.62 in 10.0 mi North 10.4 mph - N/A   Overcast
7:54 AM 1.0 °F -14.9 °F -8.0 °F 66% 30.62 in 10.0 mi NNW 10.4 mph - N/A   Clear
8:54 AM 1.9 °F -16.9 °F -9.0 °F 60% 30.64 in 10.0 mi North 15.0 mph - N/A   Clear
9:54 AM 3.9 °F -14.3 °F -9.0 °F 55% 30.65 in 10.0 mi North 15.0 mph - N/A   Clear
10:54 AM 7.0 °F -10.4 °F -8.0 °F 51% 30.66 in 10.0 mi North 15.0 mph - N/A   Clear
11:54 AM 10.9 °F -4.1 °F -8.0 °F 42% 30.65 in 10.0 mi North 12.7 mph - N/A   Clear
12:54 PM 12.9 °F -2.8 °F -7.1 °F 41% 30.64 in 10.0 mi North 15.0 mph - N/A   Clear
1:54 PM 12.9 °F -0.2 °F -7.1 °F 41% 30.63 in 10.0 mi NNW 10.4 mph - N/A   Clear
2:54 PM 12.9 °F -0.9 °F -8.0 °F 39% 30.62 in 10.0 mi NNW 11.5 mph - N/A   Clear
3:54 PM 12.9 °F -0.9 °F -7.1 °F 41% 30.64 in 10.0 mi North 11.5 mph - N/A   Clear
4:54 PM 10.9 °F -3.4 °F -8.0 °F 42% 30.66 in 10.0 mi North 11.5 mph - N/A   Scattered Clouds
5:54 PM 6.1 °F -6.8 °F -7.1 °F 55% 30.69 in 10.0 mi North 8.1 mph - N/A   Scattered Clouds
6:54 PM 3.9 °F -6.9 °F -8.0 °F 58% 30.73 in 10.0 mi North 5.8 mph - N/A   Clear
7:54 PM 1.0 °F -12.9 °F -8.0 °F 66% 30.76 in 10.0 mi North 8.1 mph - N/A   Clear
8:54 PM 1.0 °F -14.0 °F -7.1 °F 69% 30.77 in 10.0 mi North 9.2 mph - N/A   Clear
9:54 PM 1.0 °F -12.9 °F -7.1 °F 69% 30.78 in 10.0 mi North 8.1 mph - N/A   Clear
10:54 PM -2.0 °F -16.6 °F -9.0 °F 72% 30.79 in 10.0 mi North 8.1 mph - N/A   Clear
11:54 PM -2.9 °F -13.3 °F -9.0 °F 75% 30.80 in 10.0 mi North 4.6 mph - N/A   Clear